Location: *
(34.8620°S, 39.3380°E)
Time: 22:43:36
(UTC+00:00)

Cosmos 1300 - Pass Details

Date: 27 July 2021
Orbit: 510 x 512 km, 82.5° (Epoch: 20 September)

Event Time Altitude Azimuth Distance (km) Brightness Sun altitude
Exits shadow 02:21:43 62° 112° (ESE) 589 3.1 -24.4°
Maximum altitude 02:21:52 62° 98° (E) 585 3.1 -24.3°
Drops below altitude 10° 02:25:39 10° 16° (NNE) 1,735 5.6 -23.6°
Sets 02:27:46 0° 12° (NNE) 2,612 6.5 -23.1°
